Onweer radar Meer informatie blitzortung!


Regen radar Meer informatie rain snow radar


Bezoek onze andere website:

Template documentation
and downloads

And another site



15 daagse weersverwachting Bochum (DE)

  • Overzicht
  • Per uur
  • 15 dagen
  • Extra
  • Vergelijk
  • Kaarten
  • Dagkaart
  • Meer »
  • Info
  • Statistieken
  • Directe link
    Temp 6h Neerslag Wind  
 05:58     21:18    Daglengte: 15:20 Vandaag
02:00
15°
 
2
08:00
15°
 
4
14:00
20°
 
5
20:00
18°
1.2 mm
4
warningclass
 05:59     21:17    Daglengte: 15:18 Morgen
02:00
15°
2.8 mm
3
08:00
15°
 
2
14:00
18°
4.9 mm
3
20:00
18°
5.1 mm
2
 06:01     21:15    Daglengte: 15:14 Dinsdag 03 Aug
02:00
14°
 
1
08:00
14°
5.7 mm
1
14:00
19°
9.8 mm
2
20:00
19°
3.2 mm
2
Locatie info
Region: Nordrhein-Westfalen
Latitude: 51.4864°N
Longitude: 7.2108°E
102 masl
Postcode: 44787
Temp/Neerslag /Baro Onweer/Dauwpunt
    Temp Baro 1h Neerslag Dauwpunt Wind UV Bewolking  
 05:58     21:18    Daglengte: 15:20 Vandaag
01:00
15°
1009.9 hPa
14%
11.7°
2
Windvlaag: 2.5 m/s
9%
02:00
15°
1009.7 hPa
14%
11.6°
2
Windvlaag: 2.9 m/s
12%
03:00
15°
1009.3 hPa
14%
12.3°
3
Windvlaag: 3.4 m/s
35%
04:00
15°
1009.0 hPa
15%
12.9°
2
Windvlaag: 3.2 m/s
59%
05:00
15°
1009.3 hPa
66%
12.9°
3
Windvlaag: 4.1 m/s
64%
06:00
15°
1009.2 hPa
56%
12.9°
3
Windvlaag: 5.1 m/s
70%
07:00
15°
1009.2 hPa
28%
13.2°
3
Windvlaag: 4.4 m/s
82%
08:00
15°
1009.2 hPa
17%
12.7°
4
Windvlaag: 4.2 m/s
54%
09:00
16°
1009.4 hPa
15%
12.0°
4
Windvlaag: 4.7 m/s
75%
10:00
16°
1009.5 hPa
15%
11.1°
4
Windvlaag: 4.5 m/s
70%
11:00
17°
1009.7 hPa
14%
10.7°
4
Windvlaag: 4.3 m/s
68%
12:00
18°
1009.5 hPa
14%
10.5°
4
Windvlaag: 4.3 m/s
44%
13:00
19°
1009.2 hPa
14%
10.3°
4
Windvlaag: 4.5 m/s
32%
14:00
20°
1009.0 hPa
14%
10.1°
5
Windvlaag: 2.5 m/s
52%
15:00
20°
1009.0 hPa
53%
10.6°
5
Windvlaag: 2.2 m/s
41%
16:00
20°
1009.0 hPa
68%
11.6°
5
Windvlaag: 1 m/s
19%
17:00
19°
1009.0 hPa
74%
12.1°
4
Windvlaag: 1 m/s
15%
18:00
19°
1009.1 hPa 0.8 mm
82%
12.6°
5
Windvlaag: 1.7 m/s
21%
19:00
19°
1009.1 hPa 0.4 mm
82%
13.7°
4
Windvlaag: 1.4 m/s
43%
20:00
18°
1009.5 hPa
82%
12.7°
4
Windvlaag: 2.5 m/s
53% warningclass
21:00
17°
1009.8 hPa
82%
13.2°
3
Windvlaag: 2.7 m/s
53%
22:00
16°
1010.4 hPa 0.6 mm
82%
13.2°
3
Windvlaag: 3.2 m/s
66%
23:00
16°
1010.7 hPa 1.2 mm
82%
13.1°
3
Windvlaag: 1.7 m/s
78%
 05:59     21:17    Daglengte: 15:18 Morgen
00:00
15°
1011.1 hPa 0.9 mm
82%
12.1°
3
Windvlaag: 0.6 m/s
78%
01:00
15°
1011.2 hPa
82%
11.5°
2
Windvlaag: -0.4 m/s
67%
02:00
15°
1011.2 hPa
82%
11.9°
3
Windvlaag: 0.9 m/s
83%
03:00
15°
1011.2 hPa
82%
12.4°
2
Windvlaag: 0.9 m/s
64%
04:00
15°
1011.5 hPa
82%
12.0°
2
Windvlaag: 0.5 m/s
32%
05:00
14°
1011.5 hPa
82%
11.8°
2
Windvlaag: 0.7 m/s
52%
06:00
14°
1011.8 hPa
82%
11.6°
2
Windvlaag: 1.7 m/s
59%
07:00
14°
1012.1 hPa
82%
11.7°
2
Windvlaag: 2.2 m/s
77%
08:00
15°
1012.5 hPa
82%
11.3°
2
Windvlaag: 1.8 m/s
80%
09:00
15°
1012.7 hPa
82%
10.3°
2
Windvlaag: 1.8 m/s
63%
10:00
16°
1012.9 hPa 1.4 mm
82%
8.7°
2
Windvlaag: 1.6 m/s
58%
11:00
16°
1013.1 hPa
82%
8.1°
2
Windvlaag: 1.7 m/s
41%
12:00
17°
1013.3 hPa 1.2 mm
82%
7.6°
3
Windvlaag: 2.1 m/s
44%
13:00
17°
1013.5 hPa 1.2 mm
82%
7.5°
3
Windvlaag: 1.5 m/s
44%
14:00
18°
1013.7 hPa 1.0 mm
82%
8.0°
3
Windvlaag: 1.6 m/s
57%
15:00
18°
1013.7 hPa
82%
8.1°
3
Windvlaag: 2.5 m/s
55%
16:00
18°
1013.6 hPa
82%
8.0°
3
Windvlaag: 3.4 m/s
46%
17:00
18°
1013.1 hPa 1.7 mm
99%
9.7°
2
Windvlaag: 3.3 m/s
39%
18:00
18°
1013.0 hPa 1.7 mm
94%
9.6°
3
Windvlaag: 3.4 m/s
41%
19:00
18°
1012.9 hPa 1.7 mm
86%
9.1°
3
Windvlaag: 3.4 m/s
47%
20:00
18°
1012.8 hPa
70%
8.9°
2
Windvlaag: 3.8 m/s
35%
21:00
17°
1013.2 hPa
21%
8.5°
2
Windvlaag: 2.8 m/s
64%
22:00
16°
1013.6 hPa
21%
8.6°
1
Windvlaag: 1.5 m/s
25%
23:00
16°
1013.8 hPa
21%
8.9°
1
Windvlaag: 1.9 m/s
69%
 06:01     21:15    Daglengte: 15:14 Dinsdag 03 Aug
00:00
15°
1014.0 hPa
21%
9.3°
1
Windvlaag: 2 m/s
47%
01:00
14°
1013.9 hPa
24%
8.9°
1
Windvlaag: 1.8 m/s
57%
02:00
14°
1013.8 hPa
34%
9.1°
1
Windvlaag: 1.6 m/s
56%
03:00
13°
1013.8 hPa
24%
9.5°
1
Windvlaag: 1.5 m/s
68%
04:00
13°
1013.6 hPa
28%
9.9°
1
Windvlaag: 1.4 m/s
97%
05:00
13°
1013.3 hPa
39%
10.0°
1
Windvlaag: 1.3 m/s
96%
06:00
13°
1013.3 hPa 1.7 mm
89%
10.2°
1
Windvlaag: 1.3 m/s
90%
07:00
13°
1013.5 hPa 2.0 mm
93%
10.6°
1
Windvlaag: 1.2 m/s
96%
08:00
14°
1013.7 hPa 2.1 mm
92%
11.1°
1
Windvlaag: 1 m/s
93%
09:00
15°
1013.8 hPa 2.0 mm
96%
11.2°
1
Windvlaag: 0.6 m/s
98%
10:00
16°
1013.9 hPa 1.8 mm
100%
11.2°
1
Windvlaag: 1.1 m/s
91%
11:00
17°
1013.9 hPa 1.8 mm
100%
11.1°
1
Windvlaag: -1.2 m/s
86%
12:00
18°
1013.7 hPa 1.3 mm
100%
10.3°
2
Windvlaag: -2.1 m/s
93%
13:00
18°
1013.5 hPa 1.2 mm
100%
8.3°
2
Windvlaag: -2.2 m/s
84%
14:00
19°
1013.1 hPa 1.7 mm
100%
7.6°
2
Windvlaag: -2.2 m/s
72%
15:00
20°
1012.7 hPa 1.6 mm
100%
7.3°
1
Windvlaag: 2.3 m/s
19%
16:00
20°
1012.4 hPa
100%
7.3°
1
Windvlaag: 3.2 m/s
46%
17:00
20°
1012.3 hPa
100%
6.9°
2
Windvlaag: 3.6 m/s
29%
18:00
20°
1011.9 hPa 1.6 mm
100%
5.8°
2
Windvlaag: 3.9 m/s
17%
19:00
20°
1011.9 hPa
56%
5.7°
2
Windvlaag: 4 m/s
15%
20:00
19°
1012.2 hPa
40%
5.8°
2
Windvlaag: 4.1 m/s
13%
21:00
20°
1010.8 hPa 4.6 mm
100%
7.4°
4
Windvlaag: 4.7 m/s
69%
22:00
19°
1011.1 hPa 4.6 mm
100%
8.5°
3
Windvlaag: 6 m/s
55%
23:00
18°
1011.6 hPa 4.6 mm
100%
9.8°
3
Windvlaag: 6.9 m/s
55%
 06:02     21:13    Daglengte: 15:11 Woensdag 04 Aug
00:00
17°
1012.0 hPa 4.6 mm
100%
11.4°
3
Windvlaag: 7.6 m/s
38%
Temp/Neerslag /Baro Onweer/Dauwpunt
    Temp Baro Neerslag Dauwpunt Wind Bewolking  
 05:58     21:18    Daglengte: 15:20 Vandaag
02:00
15°
1009.7 hPa   11.6°
2
12%
05:00
15°
1009.3 hPa   12.9°
3
64%
08:00
15°
1009.2 hPa   12.7°
4
54%
11:00
17°
1009.7 hPa   10.7°
4
68%
14:00
20°
1009.0 hPa   10.1°
5
52%
17:00
19°
1009.0 hPa   12.1°
4
15%
20:00
18°
1009.5 hPa 1.2 mm 12.7°
4
53% warningclass
23:00
16°
1010.7 hPa 1.9 mm 13.1°
3
78%
 05:59     21:17    Daglengte: 15:18 Morgen
02:00
15°
1011.2 hPa 0.9 mm 11.9°
3
83%
05:00
14°
1011.5 hPa   11.8°
2
52%
08:00
15°
1012.5 hPa   11.3°
2
80%
11:00
16°
1013.1 hPa 1.4 mm 8.1°
2
41%
14:00
18°
1013.7 hPa 3.5 mm 8.0°
3
57%
17:00
18°
1013.1 hPa 1.7 mm 9.7°
2
39%
20:00
18°
1012.8 hPa 3.4 mm 8.9°
2
35%
23:00
16°
1013.8 hPa   8.9°
1
69%
 06:01     21:15    Daglengte: 15:14 Dinsdag 03 Aug
02:00
14°
1013.8 hPa   9.1°
1
56%
05:00
13°
1013.3 hPa   10.0°
1
96%
08:00
14°
1013.7 hPa 5.7 mm 11.1°
1
93%
11:00
17°
1013.9 hPa 5.6 mm 11.1°
1
86%
14:00
19°
1013.1 hPa 4.2 mm 7.6°
2
72%
17:00
20°
1012.3 hPa 1.6 mm 6.9°
2
29%
20:00
19°
1012.2 hPa 1.6 mm 5.8°
2
13%
23:00
18°
1011.6 hPa 13.7 mm 9.8°
3
55%
 06:02     21:13    Daglengte: 15:11 Woensdag 04 Aug
02:00
16°
1012.7 hPa 13.7 mm 11.0°
3
38%
05:00
14°
1012.0 hPa 19.1 mm 13.4°
1
1%
08:00
14°
1012.6 hPa 19.8 mm 13.6°
2
1%
11:00
15°
1013.1 hPa 20.6 mm 13.7°
2
1%
14:00
18°
1012.9 hPa 21.5 mm 13.1°
3
1%
17:00
19°
1012.9 hPa 22.2 mm 12.8°
3
1%
20:00
16°
1013.4 hPa 23.7 mm 14.1°
2
1%
23:00
14°
1014.4 hPa 23.9 mm 13.0°
2
1%
 06:04     21:11    Daglengte: 15:07 Donderdag 05 Aug
02:00
14°
1014.1 hPa 24.0 mm 12.4°
2
1%
05:00
13°
1013.0 hPa 24.0 mm 12.3°
3
1%
08:00
14°
1012.9 hPa 24.0 mm 12.2°
2
1%
11:00
16°
1011.8 hPa 24.1 mm 12.5°
3
1%
14:00
19°
1010.0 hPa 24.5 mm 12.2°
4
1%
17:00
19°
1008.6 hPa 24.7 mm 8.9°
3
1%
20:00
18°
1007.6 hPa 24.7 mm 10.5°
2
1%
23:00
15°
1006.6 hPa 24.7 mm 11.9°
4
1%
 06:05     21:10    Daglengte: 15:05 Vrijdag 06 Aug
02:00
14°
1005.4 hPa 24.8 mm 11.5°
4
1%
05:00
14°
1004.0 hPa 24.9 mm 12.1°
4
1%
08:00
14°
1003.5 hPa 26.9 mm 13.1°
3
1%
11:00
17°
1003.4 hPa 27.9 mm 14.1°
5
1%
14:00
16°
1003.5 hPa 29.9 mm 14.1°
5
1%
17:00
15°
1003.5 hPa 33.4 mm 14.2°
5
1%
20:00
16°
1003.8 hPa 34.7 mm 14.6°
5
1%
23:00
15°
1005.7 hPa 35.7 mm 14.1°
6
1%
 06:07     21:08    Daglengte: 15:01 Zaterdag 07 Aug
02:00
14°
1007.0 hPa 35.7 mm 13.3°
5
1%
05:00
14°
1007.9 hPa 35.7 mm 12.3°
5
1%
08:00
14°
1009.0 hPa 35.7 mm 12.2°
4
1%
11:00
17°
1009.9 hPa 35.8 mm 12.0°
5
1%
14:00
21°
1009.5 hPa 35.8 mm 10.3°
4
1%
17:00
21°
1009.7 hPa 35.8 mm 9.6°
4
1%
20:00
20°
1010.0 hPa 35.8 mm 12.2°
2
1%
23:00
17°
1010.4 hPa   12.2°
2
1%
 06:08     21:06    Daglengte: 14:58 Zondag 08 Aug
02:00
17°
1010.1 hPa 71.5 mm 12.5°
2
1%
08:00
17°
1008.1 hPa 71.7 mm 12.7°
3
1%
14:00
23°
1010.7 hPa 84.6 mm 10.9°
7
1%
20:00
20°
1011.7 hPa 84.8 mm 12.0°
5
0%
 06:10     21:04    Daglengte: 14:54 Maandag 09 Aug
02:00
16°
1014.6 hPa 85.2 mm 10.7°
6
0%
08:00
15°
1017.1 hPa 85.3 mm 11.2°
5
1%
14:00
17°
1019.4 hPa 85.8 mm 12.5°
6
1%
20:00
16°
1021.1 hPa 90.4 mm 13.6°
4
1%
 06:11     21:02    Daglengte: 14:51 Dinsdag 10 Aug
02:00
14°
1022.9 hPa 91.8 mm 12.1°
3
1%
08:00
14°
1023.1 hPa 91.9 mm 11.7°
3
1%
14:00
20°
1023.2 hPa 92.3 mm 12.8°
4
1%
20:00
20°
1019.4 hPa 0.2 mm 13.7°
2
49%
 06:13     21:00    Daglengte: 14:47 Woensdag 11 Aug
02:00
15°
1020.6 hPa 0.4 mm 12.3°
1
50%
08:00
15°
1020.7 hPa   12.1°
1
47%
14:00
22°
1019.9 hPa 0.3 mm 12.4°
2
51%
20:00
19°
1019.6 hPa 1.0 mm 13.3°
1
50%
 06:14     20:59    Daglengte: 14:45 Donderdag 12 Aug
02:00
15°
1020.5 hPa 0.5 mm 11.7°
0
35%
08:00
15°
1020.4 hPa 0.6 mm 12.0°
0
45%
14:00
22°
1019.6 hPa 0.6 mm 12.5°
1
57%
20:00
20°
1019.2 hPa 0.6 mm 13.9°
1
54%
 06:16     20:57    Daglengte: 14:41 Vrijdag 13 Aug
02:00
16°
1019.9 hPa 0.2 mm 12.5°
0
46%
08:00
16°
1019.8 hPa 0.2 mm 12.8°
1
53%
14:00
23°
1019.2 hPa 0.3 mm 13.4°
2
59%
20:00
20°
1018.8 hPa 0.6 mm 14.2°
1
60%
 06:18     20:55    Daglengte: 14:37 Zaterdag 14 Aug
02:00
16°
1019.6 hPa 0.2 mm 12.5°
1
52%
08:00
16°
1019.2 hPa 0.3 mm 12.8°
1
56%
14:00
22°
1018.5 hPa 0.4 mm 13.4°
1
68%
20:00
20°
1018.0 hPa 0.6 mm 13.8°
1
58%
 06:19     20:53    Daglengte: 14:34 Zondag 15 Aug
02:00
16°
1018.6 hPa 0.2 mm 12.6°
1
44%
08:00
16°
1018.1 hPa 0.4 mm 12.9°
1
52%
14:00
22°
1017.4 hPa 0.9 mm 13.7°
2
53%
20:00
20°
1017.0 hPa 0.8 mm 14.0°
1
54%
  CAPE Lifted Index Hail Supercell Tornado SRH 3km CL BTM PRES CL TOP PRES Swiss DWD icon SMHI TS
 05:58     21:18    Daglengte: 15:20 Vandaag
01:00 52 J/kg 0.2 K 0 % 0 % 0 % 0 m²/s² 0 0 1.7 2
02:00 57 J/kg 0.2 K 0 % 0 % 0 % 0 m²/s² 0 0 1.52 2
03:00 5 J/kg 0.5 K 0 % 0 % 0 % 0 m²/s² 0 0 1.76 2
04:00 0 J/kg 0.8 K 0 % 0 % 0 % 0 m²/s² 0 0 2.03 2
05:00 0 J/kg 0.7 K 0 % 0 % 0 % 0 m²/s² 0 0 2.08 3
06:00 0 J/kg 0.9 K 0 % 0 % 0 % 0 m²/s² 0 0 2.49 3
07:00 0 J/kg 0.8 K 0 % 0 % 0 % 0 m²/s² 0 0 2.3 3
08:00 0 J/kg 1.2 K 0 % 0 % 0 % 0 m²/s² 0 0 2.85 2
09:00 29 J/kg 1.1 K 0 % 0 % 0 % 0 m²/s² 0 0 2.48 3
10:00 113 J/kg 0.6 K 0 % 0 % 0 % 0 m²/s² 0 0 1.86 3
11:00 180 J/kg -0.1 K 0 % 0 % 0 % 0 m²/s² 0 0 1.16 3
12:00 221 J/kg -0.5 K 0 % 0 % 0 % 0 m²/s² 0 0 0.7 3
13:00 226 J/kg -0.7 K 0 % 0 % 0 % 0 m²/s² 0 0 0.5 3
14:00 182 J/kg -0.7 K 0 % 0 % 0 % 0 m²/s² 0 0 1.01 3
15:00 225 J/kg -1.2 K 0 % 0 % 0 % 0 m²/s² 0 0 0.69 3
16:00 365 J/kg -1.8 K 0 % 0 % 0 % 0 m²/s² 0 0 -0.09 2
17:00 451 J/kg -2.0 K 0 % 0 % 0 % 0 m²/s² 0 0 -0.5 3
18:00 506 J/kg -2.4 K 0 % 0 % 0 % 0 m²/s² 0 0 -0.84 2
19:00 276 J/kg -1.7 K 0 % 0 % 0 % 0 m²/s² 0 0 -0.26 80
20:00 69 J/kg -0.8 K 0 % 0 % 0 % 0 m²/s² 0 0 0.91 95
21:00 8 J/kg -0.4 K 0 % 0 % 0 % 0 m²/s² 0 0 0.77 80
22:00 143 J/kg -0.5 K 0 % 0 % 0 % 0 m²/s² 0 0 -0.2 80
23:00 188 J/kg -0.7 K 0 % 0 % 0 % 0 m²/s² 0 0 -0.16 80
 05:59     21:17    Daglengte: 15:18 Morgen
00:00 107 J/kg 0.2 K 0 % 0 % 0 % 0 m²/s² 0 0 1.79 80
01:00 79 J/kg 0.0 K 0 % 0 % 0 % 0 m²/s² 0 0 1.38 80
02:00 117 J/kg 0.1 K 0 % 0 % 0 % 0 m²/s² 0 0 1.18 80
03:00 171 J/kg 0.4 K 0 % 0 % 0 % 0 m²/s² 0 0 1.18 80
04:00 27 J/kg 1.7 K 0 % 0 % 0 % 0 m²/s² 0 0 3.14 80
05:00 0 J/kg 2.7 K 0 % 0 % 0 % 0 m²/s² 0 0 4.14 80
06:00 0 J/kg 3.2 K 0 % 0 % 0 % 0 m²/s² 0 0 6.68 80
07:00 0 J/kg 4.1 K 0 % 0 % 0 % 0 m²/s² 0 0 8.69 80
08:00 0 J/kg 4.4 K 0 % 0 % 0 % 0 m²/s² 0 0 9.5 80
09:00 5 J/kg 4.6 K 0 % 0 % 0 % 0 m²/s² 0 0 6.61 80
10:00 11 J/kg 4.3 K 0 % 0 % 0 % 0 m²/s² 0 0 6.25 80
11:00 14 J/kg 3.6 K 0 % 0 % 0 % 0 m²/s² 0 0 3.99 80
12:00 15 J/kg 2.9 K 0 % 0 % 0 % 0 m²/s² 0 0 3.29 80
13:00 10 J/kg 2.5 K 0 % 0 % 0 % 0 m²/s² 0 0 3.04 80
14:00 25 J/kg 2.1 K 0 % 0 % 0 % 0 m²/s² 0 0 3.33 80
15:00 57 J/kg 1.4 K 0 % 0 % 0 % 0 m²/s² 0 0 1.94 3
16:00 89 J/kg 1.2 K 0 % 0 % 0 % 0 m²/s² 0 0 2.97 3
17:00 106 J/kg 0.9 K 0 % 0 % 0 % 0 m²/s² 0 0 3.39 80
18:00 122 J/kg 0.6 K 0 % 0 % 0 % 0 m²/s² 0 0 3.57 80
19:00 117 J/kg 0.6 K 0 % 0 % 0 % 0 m²/s² 0 0 1.71 3
20:00 94 J/kg 0.7 K 0 % 0 % 0 % 0 m²/s² 0 0 2.23 2
21:00 75 J/kg 1.0 K 0 % 0 % 0 % 0 m²/s² 0 0 2.98 3
22:00 50 J/kg 1.0 K 0 % 0 % 0 % 0 m²/s² 0 0 3.31 2
23:00 4 J/kg 1.2 K 0 % 0 % 0 % 0 m²/s² 0 0 3.09 3
 06:01     21:15    Daglengte: 15:14 Dinsdag 03 Aug
00:00 0 J/kg 1.0 K 0 % 0 % 0 % 0 m²/s² 0 0 2.56 3
01:00 0 J/kg 1.1 K 0 % 0 % 0 % 0 m²/s² 0 0 2.27 3
02:00 0 J/kg 1.3 K 0 % 0 % 0 % 0 m²/s² 0 0 3.88 2
03:00 0 J/kg 1.1 K 0 % 0 % 0 % 0 m²/s² 0 0 4.07 3
04:00 0 J/kg 0.8 K 0 % 0 % 0 % 0 m²/s² 0 0 1.73 3
05:00 0 J/kg 0.9 K 0 % 0 % 0 % 0 m²/s² 0 0 1.14 3
06:00 0 J/kg 0.9 K 0 % 0 % 0 % 0 m²/s² 0 0 2.13 3
07:00 0 J/kg 1.1 K 0 % 0 % 0 % 0 m²/s² 0 0 1.82 80
08:00 0 J/kg 1.1 K 0 % 0 % 0 % 0 m²/s² 0 0 1.97 80
09:00 0 J/kg 1.5 K 0 % 0 % 0 % 0 m²/s² 0 0 2.94 80
10:00 0 J/kg 2.0 K 0 % 0 % 0 % 0 m²/s² 0 0 3.26 80
11:00 0 J/kg 2.6 K 0 % 0 % 0 % 0 m²/s² 0 0 3.47 80
12:00 1 J/kg 2.1 K 0 % 0 % 0 % 0 m²/s² 0 0 2.7 80
13:00 0 J/kg 2.1 K 0 % 0 % 0 % 0 m²/s² 0 0 2.88 80
14:00 1 J/kg 1.9 K 0 % 0 % 0 % 0 m²/s² 0 0 3.07 80
15:00 11 J/kg 1.8 K 0 % 0 % 0 % 0 m²/s² 0 0 3.09 2
16:00 18 J/kg 1.6 K 0 % 0 % 0 % 0 m²/s² 0 0 2.83 2
17:00 22 J/kg 1.7 K 0 % 0 % 0 % 0 m²/s² 0 0 2.72 2
18:00 3 J/kg 2.5 K 0 % 0 % 0 % 0 m²/s² 0 0 3.79 2
19:00 1 J/kg 2.9 K 0 % 0 % 0 % 0 m²/s² 0 0 4.22 3
20:00 0 J/kg 3.2 K 0 % 0 % 0 % 0 m²/s² 0 0 5 2
21:00 0 J/kg 3.6 K 0 % 0 % 0 % 0 m²/s² 0 0 5.64
22:00 0 J/kg 3.3 K 0 % 0 % 0 % 0 m²/s² 0 0 5.34
23:00 0 J/kg 2.7 K 0 % 0 % 0 % 0 m²/s² 0 0 4.74
 06:02     21:13    Daglengte: 15:11 Woensdag 04 Aug
00:00 0 J/kg 2.5 K 0 % 0 % 0 % 0 m²/s² 0 0 4.69
Temp Baro Wind Neerslag
  EWN Forecast EWN WRFDA DWD ICON FMI HIRLAM MET Norway GFS
 05:58     21:18    Daglengte: 15:20 Vandaag
02:00 14.9° 1009.7 hPa 2.3 m/s 0.0 mm 15.3° 1008.8 hPa 2.9 m/s 1.4 mm 14.7° 1010.2 hPa 1.8 m/s -1.7 mm 16.1° 1009.0 hPa 2.7 m/s 0.0 mm 13.7° 1009.8 hPa 2.1 m/s
05:00 14.6° 1009.3 hPa 2.8 m/s 0.0 mm 13.7° 1008.0 hPa 2.1 m/s 1.4 mm 14.7° 1009.5 hPa 2.3 m/s 0.0 mm 15.2° 1009.2 hPa 4.1 m/s 0.0 mm 12.8° 1009.1 hPa 2.4 m/s
08:00 15.0° 1009.2 hPa 4.0 m/s 0.0 mm 15.1° 1007.7 hPa 2.5 m/s 1.4 mm 15.1° 1009.6 hPa 2.9 m/s 0.0 mm 15.1° 1008.4 hPa 4.4 m/s 0.0 mm 13.9° 1009.9 hPa 3.3 m/s
11:00 17.3° 1009.7 hPa 4.3 m/s 0.0 mm 18.9° 1008.1 hPa 3.3 m/s 1.4 mm 17.1° 1010.1 hPa 3.6 m/s 0.0 mm 18.7° 1008.4 hPa 4.9 m/s 0.0 mm 18.2° 1009.8 hPa 3.7 m/s
14:00 20.2° 1009.0 hPa 4.6 m/s 0.0 mm 22.0° 1007.1 hPa 4.4 m/s 1.4 mm 20.1° 1009.4 hPa 4.0 m/s 0.0 mm 21.4° 1007.8 hPa 5.1 m/s 0.0 mm 21.1° 1009.0 hPa 4.2 m/s
17:00 19.5° 1009.0 hPa 4.0 m/s 0.0 mm 22.3° 1006.7 hPa 5.0 m/s 1.7 mm 19.3° 1009.5 hPa 3.8 m/s 0.1 mm 20.3° 1007.5 hPa 5.0 m/s 0.0 mm 19.1° 1009.5 hPa 4.1 m/s
20:00 17.7° 1009.5 hPa 3.5 m/s 1.2 mm 18.5° 1007.8 hPa 3.6 m/s 3.1 mm 17.6° 1009.9 hPa 2.7 m/s 1.5 mm 18.4° 1008.1 hPa 4.7 m/s 0.0 mm 16.9° 1009.6 hPa 2.7 m/s
23:00 15.7° 1010.7 hPa 3.5 m/s 1.9 mm 16.0° 1008.9 hPa 2.8 m/s 5.3 mm 15.7° 1011.0 hPa 2.2 m/s 2.9 mm 16.3° 1010.1 hPa 4.7 m/s 0.0 mm 14.8° 1011.2 hPa 1.5 m/s
 05:59     21:17    Daglengte: 15:18 Morgen
02:00 15.0° 1011.2 hPa 2.6 m/s 0.9 mm 15.5° 1008.9 hPa 3.0 m/s 10.0 mm 15.0° 1011.5 hPa 2.0 m/s 1.3 mm 15.1° 1010.6 hPa 2.6 m/s 0.0 mm 13.6° 1012.0 hPa 1.5 m/s
05:00 14.4° 1011.5 hPa 2.2 m/s 0.0 mm 14.1° 1009.9 hPa 1.6 m/s 13.0 mm 14.5° 1011.6 hPa 1.8 m/s 1.4 mm 14.7° 1010.9 hPa 3.7 m/s 0.0 mm 12.7° 1012.9 hPa 1.2 m/s
08:00 14.6° 1012.5 hPa 2.3 m/s 0.0 mm 14.6° 1011.5 hPa 1.2 m/s 13.7 mm 14.8° 1012.5 hPa 2.2 m/s 1.8 mm 14.7° 1012.3 hPa 4.4 m/s 0.0 mm 13.4° 1014.2 hPa 2.0 m/s
11:00 16.3° 1013.1 hPa 2.4 m/s 1.4 mm 16.1° 1012.0 hPa 2.8 m/s 13.7 mm 16.2° 1013.1 hPa 1.8 m/s 2.5 mm 17.6° 1013.1 hPa 5.4 m/s 0.0 mm 16.6° 1014.6 hPa 2.5 m/s
14:00 17.8° 1013.7 hPa 3.3 m/s 3.5 mm 18.8° 1011.8 hPa 3.2 m/s 13.7 mm 17.9° 1013.3 hPa 2.2 m/s 1.0 mm 18.9° 1013.9 hPa 5.6 m/s 0.0 mm 19.9° 1014.0 hPa 2.1 m/s
17:00 18.3° 1013.1 hPa 2.2 m/s 1.7 mm 20.1° 1011.2 hPa 3.2 m/s 13.7 mm 18.2° 1013.4 hPa 1.9 m/s 0.7 mm 21.0° 1013.1 hPa 2.5 m/s
20:00 17.7° 1012.8 hPa 2.4 m/s 3.4 mm 20.1° 1011.0 hPa 2.8 m/s 13.7 mm 17.6° 1012.9 hPa 1.6 m/s 0.5 mm 19.6° 1013.1 hPa 1.5 m/s
23:00 15.6° 1013.8 hPa 1.4 m/s 0.0 mm 17.8° 1012.0 hPa 1.8 m/s 13.7 mm 15.7° 1013.9 hPa 0.9 m/s 0.0 mm 16.1° 1014.0 hPa 0.6 m/s
 06:01     21:15    Daglengte: 15:14 Dinsdag 03 Aug
02:00 13.6° 1013.8 hPa 0.9 m/s 0.0 mm 15.2° 1012.2 hPa 0.2 m/s 13.7 mm 13.6° 1013.9 hPa 0.9 m/s 0.0 mm 14.9° 1013.5 hPa 1.2 m/s
05:00 13.0° 1013.3 hPa 0.8 m/s 0.0 mm 14.3° 1011.7 hPa 0.4 m/s 13.7 mm 13.2° 1013.5 hPa 0.7 m/s 0.0 mm 14.0° 1012.8 hPa 1.3 m/s
08:00 14.1° 1013.7 hPa 0.7 m/s 5.7 mm 14.8° 1011.9 hPa 1.2 m/s 13.7 mm 14.5° 1013.9 hPa 0.4 m/s 1.7 mm 14.4° 1012.8 hPa 0.9 m/s
11:00 16.7° 1013.9 hPa 1.2 m/s 5.6 mm 16.8° 1011.9 hPa 1.6 m/s 13.7 mm 17.0° 1014.1 hPa 0.7 m/s 1.6 mm 15.7° 1012.8 hPa 0.7 m/s
14:00 18.8° 1013.1 hPa 1.5 m/s 4.2 mm 20.9° 1010.3 hPa 2.3 m/s 13.7 mm 18.2° 1013.8 hPa 1.1 m/s 1.0 mm 19.0° 1011.6 hPa 0.5 m/s
17:00 20.3° 1012.3 hPa 1.8 m/s 1.6 mm 22.4° 1010.0 hPa 3.6 m/s 13.7 mm 19.8° 1012.9 hPa 1.4 m/s 0.2 mm 16.5° 1011.7 hPa 2.0 m/s
20:00 19.5° 1012.2 hPa 1.7 m/s 1.6 mm 21.4° 1010.0 hPa 4.0 m/s 13.7 mm 19.0° 1012.7 hPa 1.1 m/s 0.1 mm 16.8° 1011.9 hPa 1.1 m/s
23:00 18.4° 1011.6 hPa 3.4 m/s 13.7 mm 18.4° 1011.6 hPa 3.4 m/s 13.7 mm 14.2° 1012.9 hPa 1.4 m/s
 06:02     21:13    Daglengte: 15:11 Woensdag 04 Aug
02:00 15.6° 1012.7 hPa 2.9 m/s 13.7 mm 15.6° 1012.7 hPa 2.9 m/s 13.7 mm 13.4° 1012.9 hPa 1.4 m/s
05:00 14.1° 1012.0 hPa 1.3 m/s 19.1 mm 14.1° 1012.0 hPa 1.3 m/s 19.1 mm
08:00 14.1° 1012.6 hPa 1.8 m/s 19.8 mm 14.1° 1012.6 hPa 1.8 m/s 19.8 mm
11:00 15.5° 1013.1 hPa 2.2 m/s 20.6 mm 15.5° 1013.1 hPa 2.2 m/s 20.6 mm
14:00 17.9° 1012.9 hPa 3.0 m/s 21.5 mm 17.9° 1012.9 hPa 3.0 m/s 21.5 mm
17:00 19.0° 1012.9 hPa 2.7 m/s 22.2 mm 19.0° 1012.9 hPa 2.7 m/s 22.2 mm
20:00 15.8° 1013.4 hPa 2.1 m/s 23.7 mm 15.8° 1013.4 hPa 2.1 m/s 23.7 mm
23:00 14.3° 1014.4 hPa 1.8 m/s 23.9 mm 14.3° 1014.4 hPa 1.8 m/s 23.9 mm
 06:04     21:11    Daglengte: 15:07 Donderdag 05 Aug
02:00 13.9° 1014.1 hPa 2.0 m/s 24.0 mm 13.9° 1014.1 hPa 2.0 m/s 24.0 mm
05:00 13.3° 1013.0 hPa 2.5 m/s 24.0 mm 13.3° 1013.0 hPa 2.5 m/s 24.0 mm
08:00 13.7° 1012.9 hPa 2.0 m/s 24.0 mm 13.7° 1012.9 hPa 2.0 m/s 24.0 mm
11:00 15.6° 1011.8 hPa 2.8 m/s 24.1 mm 15.6° 1011.8 hPa 2.8 m/s 24.1 mm
14:00 18.5° 1010.0 hPa 3.8 m/s 24.5 mm 18.5° 1010.0 hPa 3.8 m/s 24.5 mm
17:00 19.2° 1008.6 hPa 3.3 m/s 24.7 mm 19.2° 1008.6 hPa 3.3 m/s 24.7 mm
20:00 17.5° 1007.6 hPa 2.5 m/s 24.7 mm 17.5° 1007.6 hPa 2.5 m/s 24.7 mm
23:00 14.9° 1006.6 hPa 3.6 m/s 24.7 mm 14.9° 1006.6 hPa 3.6 m/s 24.7 mm
 06:05     21:10    Daglengte: 15:05 Vrijdag 06 Aug
02:00 14.5° 1005.4 hPa 4.3 m/s 24.8 mm 14.5° 1005.4 hPa 4.3 m/s 24.8 mm
05:00 14.2° 1004.0 hPa 3.7 m/s 24.9 mm 14.2° 1004.0 hPa 3.7 m/s 24.9 mm
08:00 14.1° 1003.5 hPa 3.2 m/s 26.9 mm 14.1° 1003.5 hPa 3.2 m/s 26.9 mm
11:00 17.2° 1003.4 hPa 4.9 m/s 27.9 mm 17.2° 1003.4 hPa 4.9 m/s 27.9 mm
14:00 15.7° 1003.5 hPa 4.7 m/s 29.9 mm 15.7° 1003.5 hPa 4.7 m/s 29.9 mm
17:00 15.1° 1003.5 hPa 4.7 m/s 33.4 mm 15.1° 1003.5 hPa 4.7 m/s 33.4 mm
20:00 16.0° 1003.8 hPa 5.5 m/s 34.7 mm 16.0° 1003.8 hPa 5.5 m/s 34.7 mm
23:00 15.1° 1005.7 hPa 5.6 m/s 35.7 mm 15.1° 1005.7 hPa 5.6 m/s 35.7 mm
 06:07     21:08    Daglengte: 15:01 Zaterdag 07 Aug
02:00 14.4° 1007.0 hPa 5.3 m/s 35.7 mm 14.4° 1007.0 hPa 5.3 m/s 35.7 mm
05:00 13.6° 1007.9 hPa 4.7 m/s 35.7 mm 13.6° 1007.9 hPa 4.7 m/s 35.7 mm
08:00 14.0° 1009.0 hPa 4.3 m/s 35.7 mm 14.0° 1009.0 hPa 4.3 m/s 35.7 mm
11:00 16.6° 1009.9 hPa 4.7 m/s 35.8 mm 16.6° 1009.9 hPa 4.7 m/s 35.8 mm
14:00 21.4° 1009.5 hPa 4.4 m/s 35.8 mm 21.4° 1009.5 hPa 4.4 m/s 35.8 mm
17:00 21.4° 1009.7 hPa 3.7 m/s 35.8 mm 21.4° 1009.7 hPa 3.7 m/s 35.8 mm
20:00 19.9° 1010.0 hPa 1.8 m/s 35.8 mm 19.9° 1010.0 hPa 1.8 m/s 35.8 mm
23:00 17.4° 1010.4 hPa 1.9 m/s 35.8 mm 17.4° 1010.4 hPa 1.9 m/s 35.8 mm
 06:08     21:06    Daglengte: 14:58 Zondag 08 Aug
02:00 16.5° 1010.1 hPa 1.8 m/s 35.8 mm 16.5° 1010.1 hPa 1.8 m/s 35.8 mm
08:00 17.3° 1008.1 hPa 2.9 m/s 35.9 mm 17.3° 1008.1 hPa 2.9 m/s 35.9 mm
14:00 22.8° 1010.7 hPa 6.9 m/s 42.3 mm 22.8° 1010.7 hPa 6.9 m/s 42.3 mm
20:00 20.1° 1011.7 hPa 5.0 m/s 42.5 mm 20.1° 1011.7 hPa 5.0 m/s 42.5 mm
 06:10     21:04    Daglengte: 14:54 Maandag 09 Aug
02:00 15.8° 1014.6 hPa 6.3 m/s 42.6 mm 15.8° 1014.6 hPa 6.3 m/s 42.6 mm
08:00 15.1° 1017.1 hPa 5.5 m/s 42.7 mm 15.1° 1017.1 hPa 5.5 m/s 42.7 mm
14:00 16.9° 1019.4 hPa 5.8 m/s 43.1 mm 16.9° 1019.4 hPa 5.8 m/s 43.1 mm
20:00 16.3° 1021.1 hPa 4.1 m/s 45.8 mm 16.3° 1021.1 hPa 4.1 m/s 45.8 mm
 06:11     21:02    Daglengte: 14:51 Dinsdag 10 Aug
02:00 14.1° 1022.9 hPa 3.2 m/s 45.9 mm 14.1° 1022.9 hPa 3.2 m/s 45.9 mm
08:00 13.9° 1023.1 hPa 3.4 m/s 45.9 mm 13.9° 1023.1 hPa 3.4 m/s 45.9 mm
14:00 19.7° 1023.2 hPa 4.1 m/s 46.3 mm 19.7° 1023.2 hPa 4.1 m/s 46.3 mm
20:00 19.7° 1019.4 hPa 1.9 m/s 0.2 mm
 06:13     21:00    Daglengte: 14:47 Woensdag 11 Aug
02:00 14.8° 1020.6 hPa 0.9 m/s 0.4 mm
08:00 15.0° 1020.7 hPa 1.3 m/s 0.0 mm
14:00 21.7° 1019.9 hPa 2.0 m/s 0.3 mm
20:00 19.3° 1019.6 hPa 1.4 m/s 1.0 mm
 06:14     20:59    Daglengte: 14:45 Donderdag 12 Aug
02:00 14.6° 1020.5 hPa 0.1 m/s 0.5 mm
08:00 15.2° 1020.4 hPa 0.4 m/s 0.6 mm
14:00 22.2° 1019.6 hPa 1.2 m/s 0.6 mm
20:00 20.1° 1019.2 hPa 1.1 m/s 0.6 mm
 06:16     20:57    Daglengte: 14:41 Vrijdag 13 Aug
02:00 15.7° 1019.9 hPa 0.4 m/s 0.2 mm
08:00 16.2° 1019.8 hPa 1.0 m/s 0.2 mm
14:00 23.1° 1019.2 hPa 1.7 m/s 0.3 mm
20:00 20.4° 1018.8 hPa 1.4 m/s 0.6 mm
 06:18     20:55    Daglengte: 14:37 Zaterdag 14 Aug
02:00 15.9° 1019.6 hPa 0.6 m/s 0.2 mm
08:00 16.0° 1019.2 hPa 1.0 m/s 0.3 mm
14:00 22.2° 1018.5 hPa 1.5 m/s 0.4 mm
20:00 20.2° 1018.0 hPa 1.0 m/s 0.6 mm
 06:19     20:53    Daglengte: 14:34 Zondag 15 Aug
02:00 15.7° 1018.6 hPa 0.7 m/s 0.2 mm
08:00 15.7° 1018.1 hPa 1.4 m/s 0.4 mm
14:00 22.2° 1017.4 hPa 2.3 m/s 0.9 mm
20:00 19.8° 1017.0 hPa 1.5 m/s 0.8 mm
FMI Hirlam - 7.5 km EWN WRFDA - 12 km DWD ICON - 7 km GFS - 25 km Basiskaart






























































Updatetijd (Europe/Amsterdam) Resolutie Lengte Stap
FMI Hirlam 19:00, 01:00, 07:00, 13:00 7.5 km 49h 1h
EWN WRFDA 22:15, 04:15, 10:15, 16:15 12 km 73h 1h
DWD ICON 23:45, 05:45, 11:45, 17:45 7 km 75h 1h
GFS 20:15, 02:15, 08:15, 14:15 25 km 237h 3h
30+ mm
25-30 mm
20-25 mm
15-20 mm
10-15 mm
6-10 mm
4-6 mm
2-4 mm
1-2 mm
0.5-1 mm
0.2-0.5 mm
0.1-0.2 mm
30+ mm
25-30 mm
20-25 mm
15-20 mm
10-15 mm
6-10 mm
4-6 mm
2-4 mm
1-2 mm
0.5-1 mm
0.2-0.5 mm
0.1-0.2 mm
Sneeuwval
Natte sneeuw
Hagel
Vorst
30+ mm
25-30 mm
20-25 mm
15-20 mm
10-15 mm
6-10 mm
4-6 mm
2-4 mm
1-2 mm
0.5-1 mm
0.2-0.5 mm
0.1-0.2 mm
Sneeuwval
Natte sneeuw
Hagel
Vorst
Onweer
50 mm
40 mm
30 mm
26 mm
22 mm
18 mm
14 mm
10 mm
9 mm
8 mm
7 mm
6 mm
5 mm
4.5 mm
4 mm
3.5 mm
3 mm
2.5 mm
2 mm
1.5 mm
1 mm
0.8 mm
0.6 mm
0.4 mm
0.2 mm
0.05 mm
35°
30°
25°
20°
15°
10°